{"data":{"norad_id":64351,"intl_designator":"2025-126H","name":"STARLINK-34389","alt_names":[],"object_type":"PAYLOAD","status":"ACTIVE","operator":null,"country":"US","launch_date":"2025-06-13","launch_site_code":"AFWTR","launch_vehicle":null,"mission":null,"orbit_class":"UNKNOWN","rcs_meters":null,"size_class":null,"mass_kg":null,"dimensions":null,"purposes":["comms"],"wikipedia_slug":null,"has_3d_model":false,"image_url":null,"decayed_at":null,"tle_current":{"epoch":"2026-05-25T03:19:48.412992Z","epoch_age_seconds":59187,"freshness":"FRESH","line1":"1 64351U 25126H   26145.13875478  .00002580  00000+0  22392-3 0  9991","line2":"2 64351  70.0006 201.6780 0003723 269.2422  90.8310 14.98336214 52133","mean_motion":14.98336214,"eccentricity":0.0003723,"inclination_deg":70.0006,"raan_deg":201.678,"arg_perigee_deg":269.2422,"mean_anomaly_deg":90.831,"bstar":0.00022392,"rev_number":5213,"period_min":96.106600544329,"perigee_km":569.44912506932,"apogee_km":574.62422438753,"semimajor_km":6950.1736747284,"source":"CELESTRAK","updated_at":"2026-05-25T13:38:20.401850Z"}}}